EN

Hourly Weather Amat

Today, 24 January, Sunday

Time Temperature Precipitation Wind Pressure Humidity
00:00 +4°C° 0 mm 1 mps 732 mmHg 94%
01:00 +4°C° 0.1 mm 1 mps 732 mmHg 93%
02:00 +4°C° 0.1 mm 1 mps 732 mmHg 92%
03:00 +4°C° 0.1 mm 1 mps 732 mmHg 91%
04:00 +4°C° 0.1 mm 1 mps 732 mmHg 91%
05:00 +3°C° 0.1 mm 2 mps 733 mmHg 90%
06:00 +3°C° 0.1 mm 2 mps 734 mmHg 90%
07:00 +2°C° 0 mm 3 mps 734 mmHg 89%
08:00 +1°C° 0 mm 4 mps 735 mmHg 88%
09:00 +2°C° 0 mm 5 mps 735 mmHg 87%
10:00 +2°C° 0.1 mm 5 mps 735 mmHg 87%
11:00 +3°C° 0.1 mm 6 mps 735 mmHg 87%
12:00 +3°C° 0.1 mm 6 mps 735 mmHg 87%
13:00 +3°C° 0.3 mm 6 mps 735 mmHg 87%
14:00 +4°C° 0.3 mm 7 mps 734 mmHg 87%
15:00 +4°C° 0.3 mm 7 mps 734 mmHg 87%
16:00 +4°C° 0.4 mm 7 mps 735 mmHg 87%
17:00 +3°C° 0.4 mm 6 mps 736 mmHg 87%
18:00 +3°C° 0.4 mm 6 mps 736 mmHg 87%
19:00 +2°C° 0.1 mm 5 mps 737 mmHg 87%
20:00 +3°C° 0.1 mm 4 mps 738 mmHg 87%
21:00 +1°C° 0.1 mm 4 mps 738 mmHg 87%
22:00 +2°C° 0 mm 3 mps 739 mmHg 88%
23:00 +1°C° 0 mm 3 mps 739 mmHg 89%

Tomorrow, 25 January, Monday

Time Temperature Precipitation Wind Pressure Humidity
00:00 +1°C° 0 mm 3 mps 740 mmHg 90%
01:00 +1°C° 0 mm 3 mps 740 mmHg 91%
02:00 +2°C° 0 mm 2 mps 741 mmHg 91%
03:00 +1°C° 0 mm 2 mps 741 mmHg 92%
04:00 +1°C° 0 mm 2 mps 741 mmHg 93%
05:00 +1°C° 0 mm 2 mps 742 mmHg 93%
06:00 +2°C° 0 mm 1 mps 742 mmHg 94%
07:00 +2°C° 0 mm 1 mps 742 mmHg 92%
08:00 +3°C° 0 mm 1 mps 743 mmHg 91%
09:00 +4°C° 0 mm 1 mps 743 mmHg 89%
10:00 +5°C° 0.1 mm 1 mps 743 mmHg 85%
11:00 +5°C° 0.1 mm 2 mps 744 mmHg 80%
12:00 +6°C° 0.1 mm 2 mps 744 mmHg 76%
13:00 +6°C° 0.2 mm 2 mps 743 mmHg 76%
14:00 +7°C° 0.2 mm 2 mps 743 mmHg 76%
15:00 +7°C° 0.2 mm 2 mps 743 mmHg 76%
16:00 +6°C° 0.3 mm 2 mps 744 mmHg 81%
17:00 +5°C° 0.3 mm 2 mps 744 mmHg 87%
18:00 +5°C° 0.3 mm 2 mps 744 mmHg 92%
19:00 +5°C° 0.1 mm 2 mps 745 mmHg 92%
20:00 +5°C° 0.1 mm 2 mps 745 mmHg 91%
21:00 +6°C° 0.1 mm 1 mps 745 mmHg 91%
22:00 +6°C° 0 mm 1 mps 745 mmHg 91%
23:00 +5°C° 0 mm 1 mps 746 mmHg 92%

Day after tomorrow, 26 January, Tuesday

Time Temperature Precipitation Wind Pressure Humidity
00:00 +5°C° 0 mm 1 mps 746 mmHg 92%
01:00 +5°C° 0 mm 1 mps 746 mmHg 93%
02:00 +4°C° 0 mm 1 mps 746 mmHg 93%
03:00 +2°C° 0 mm 0 mps 746 mmHg 94%
04:00 +2°C° 0 mm 0 mps 746 mmHg 94%
05:00 +2°C° 0 mm 0 mps 746 mmHg 94%
06:00 +1°C° 0 mm 0 mps 745 mmHg 94%
07:00 +3°C° 0 mm 1 mps 746 mmHg 93%
08:00 +4°C° 0 mm 1 mps 746 mmHg 92%
09:00 +4°C° 0 mm 1 mps 746 mmHg 91%
10:00 +6°C° 0 mm 1 mps 746 mmHg 86%
11:00 +6°C° 0 mm 2 mps 746 mmHg 81%
12:00 +7°C° 0 mm 2 mps 745 mmHg 77%
13:00 +8°C° 0 mm 1 mps 745 mmHg 76%
14:00 +8°C° 0 mm 1 mps 745 mmHg 76%
15:00 +8°C° 0 mm 1 mps 744 mmHg 75%
16:00 +8°C° 0 mm 1 mps 744 mmHg 77%
17:00 +8°C° 0 mm 1 mps 744 mmHg 79%
18:00 +7°C° 0 mm 1 mps 744 mmHg 81%
19:00 +7°C° 0.2 mm 1 mps 745 mmHg 84%
20:00 +7°C° 0.2 mm 1 mps 745 mmHg 86%
21:00 +7°C° 0.2 mm 1 mps 745 mmHg 89%
22:00 +7°C° 0.2 mm 1 mps 745 mmHg 91%
23:00 +7°C° 0.2 mm 1 mps 746 mmHg 93%

27 January, Wednesday

Time Temperature Precipitation Wind Pressure Humidity
00:00 +7°C° 0.2 mm 1 mps 746 mmHg 95%
01:00 +8°C° 0.3 mm 1 mps 746 mmHg 96%
02:00 +8°C° 0.3 mm 1 mps 746 mmHg 97%
03:00 +8°C° 0.3 mm 1 mps 746 mmHg 98%
04:00 +8°C° 0.1 mm 2 mps 746 mmHg 97%
05:00 +9°C° 0.1 mm 3 mps 746 mmHg 97%
06:00 +10°C° 0.1 mm 3 mps 747 mmHg 97%
07:00 +10°C° 0 mm 3 mps 747 mmHg 96%
08:00 +9°C° 0 mm 3 mps 747 mmHg 96%
09:00 +9°C° 0 mm 3 mps 748 mmHg 96%
10:00 +10°C° 0 mm 3 mps 748 mmHg 93%
11:00 +10°C° 0 mm 3 mps 748 mmHg 91%
12:00 +10°C° 0 mm 3 mps 748 mmHg 88%
13:00 +10°C° 0 mm 2 mps 748 mmHg 87%
14:00 +12°C° 0 mm 2 mps 748 mmHg 85%
15:00 +12°C° 0 mm 2 mps 747 mmHg 84%
16:00 +11°C° 0 mm 1 mps 747 mmHg 86%
17:00 +10°C° 0 mm 1 mps 747 mmHg 89%
18:00 +8°C° 0 mm 0 mps 747 mmHg 91%
19:00 +8°C° 0 mm 0 mps 747 mmHg 92%
20:00 +8°C° 0 mm 1 mps 747 mmHg 92%
21:00 +8°C° 0 mm 1 mps 747 mmHg 93%
22:00 +8°C° 0 mm 1 mps 747 mmHg 93%
23:00 +8°C° 0 mm 1 mps 747 mmHg 93%

28 January, Thursday

Time Temperature Precipitation Wind Pressure Humidity
00:00 +7°C° 0 mm 0 mps 747 mmHg 93%
01:00 +8°C° 0.1 mm 1 mps 747 mmHg 93%
02:00 +8°C° 0.1 mm 1 mps 746 mmHg 94%
03:00 +8°C° 0.1 mm 1 mps 746 mmHg 94%
04:00 +9°C° 0.2 mm 1 mps 746 mmHg 93%
05:00 +9°C° 0.2 mm 1 mps 746 mmHg 93%
06:00 +9°C° 0.2 mm 1 mps 746 mmHg 93%
07:00 +9°C° 0 mm 1 mps 746 mmHg 91%
08:00 +10°C° 0 mm 1 mps 747 mmHg 89%
09:00 +10°C° 0 mm 1 mps 747 mmHg 87%
10:00 +11°C° 0.1 mm 1 mps 747 mmHg 87%
11:00 +11°C° 0.1 mm 1 mps 747 mmHg 88%
12:00 +12°C° 0.1 mm 2 mps 747 mmHg 88%
13:00 +12°C° 0 mm 2 mps 747 mmHg 87%
14:00 +12°C° 0 mm 3 mps 747 mmHg 87%
15:00 +13°C° 0 mm 4 mps 746 mmHg 86%
16:00 +12°C° 0 mm 3 mps 747 mmHg 89%
17:00 +11°C° 0 mm 3 mps 747 mmHg 91%
18:00 +10°C° 0 mm 3 mps 747 mmHg 94%

29 January, Friday

Time Temperature Precipitation Wind Pressure Humidity
Show more